Notices

What's New in latest Release from April 7th, 2021:

- Updated Glossary, including Speed of Maximum Gust, and Total Hourly Precipitation

- Updated national and regional climate services offices contacts and prices information

- Addition of station inventory lists for 1981-2010, 1971-2000, and 1961-1990 Normals.

If you haven't already, please take our survey and provide feedback about our website: https://eccc.sondage-survey.ca/f/LanguageSelection.aspx?s=442ca660-fcf1-47c0-95a9-59707d6fd709

Hourly Data Report for April 12, 2021

CLYDE RIVER A
NUNAVUT
Current Station Operator: NAVCAN

70°29'09.000" N
68°31'01.000" W
26.50 m
2400804
71090
YCY

Download Data

Hourly Data (April 2021)
Hourly Data Report for April 12, 2021
TIME
LST
Temp Definition
°C
Dew Point Definition
°C
Rel Hum Definition
%
Precip. Amount Definition
mm

Wind Dir Definition
10's deg

Wind Spd Definition
km/h
Visibility Definition
km
Stn Press Definition
kPa
Hmdx Definition


Wind Chill Definition


Weather Definition


00:00 -5.3 -6.4 92 0.0 7 5 16.1 101.58   -8 LegendNANA
01:00 -5.7 -7.1 90 0.0 35 11 16.1 101.67   -10 LegendNANA
02:00 -5.8 -7.2 90 0.0 23 5 16.1 101.72   -8 LegendNANA
03:00 -4.3 -6.7 83 0.0 6 5 16.1 101.75   -6 LegendNANA
04:00 -6.8 -8.5 88 0.0 35 11 16.1 101.85   -12 LegendNANA
05:00 -6.0 -7.8 87 0.0 29 9 16.1 101.93   -10 LegendNANA
06:00 -5.0 -7.6 82 0.0 23 9 16.1 101.94   -9 LegendNANA
07:00 -4.7 -7.3 82 0.0 26 9 16.1 101.97   -9 LegendNANA
08:00 -6.2 -7.0 94 0.0 32 21 16.1 101.99   -13 LegendNANA
09:00 -4.2 -5.3 92 0.0 32 22 16.1 101.99   -11 LegendNANA
10:00 -4.5 -5.3 94 0.0 34 32 16.1 101.98   -13 LegendNANA
11:00 -5.0 -5.8 94 0.0 32 30 16.1 102.01   -13 LegendNANA
12:00 -5.0 -5.8 94 0.0 33 28 16.1 101.99   -13 LegendNANA
13:00 -5.2 -6.0 94 0.0 34 28 14.5 102.02   -13 LegendNANA
14:00 -5.4 -6.1 95 0.0 34 28 6.4 101.99   -13 Fog
15:00 -5.9 -6.7 94 0.0 33 28 6.4 101.98   -14 Snow
16:00 -6.5 -7.3 94 0.0 33 30 12.9 101.99   -15 LegendNANA
17:00 -7.2 -8.0 94 0.0 33 32 4.8 102.01   -16 Snow
18:00 -7.7 -8.5 94 0.0 33 32 14.5 102.00   -17 Snow
19:00 -8.2 -9.0 94 0.0 32 35 4.0 102.00   -18 Snow
20:00 -9.3 -10.2 93 0.0 32 39 4.0 102.00   -20 Snow
21:00 -10.4 -11.3 93 0.0 31 45 2.4 102.01   -22 Snow
22:00 -11.5 -12.4 93 0.0 32 46 1.2 102.02   -23 Snow,Blowing Snow
23:00 -12.2 -13.3 92 0.0 31 48 1.2 102.03   -25 Snow,Blowing Snow

Notes on Data Quality.

Legend

  • E = Estimated
  • M = Missing
  • NA = Not Available*
  • [empty] = Indicates an unobserved value
Date modified: